Regional Weather Roundup
Issued by NWS Goodland, KS

Home | Current Version | Previous Version | Text Only | Print | Product List | Glossary Off
Versions: 1 2 3 4 5 6 7 8 9 10 11 12 13 14 15 16 17 18 19 20 21 22 23 24 25 26 27 28 29 30 31 32 33 34 35 36 37 38 39 40 41 42 43 44 45 46 47 48 49 50

000
ASUS43 KGLD 230808
RWRGLD

GOODLAND FORECAST AREA HOURLY WEATHER ROUNDUP
NATIONAL WEATHER SERVICE GOODLAND KS
200 AM MDT SAT JUL 23 2016

...OFFICIAL OBSERVATIONS...

CITY           SKY/WX    TMP DP  RH WIND       PRES   REMARKS
GOODLAND KS    CLOUDY    71  65  81 E8        29.99S
HILL CITY KS   CLOUDY    80  68  66 N16G25    29.98R
IMPERIAL NEB   CLOUDY    72  63  73 E14       29.94F THUNDER
MCCOOK NEB     CLOUDY    72  66  81 E12       29.97F
AKRON CO       CLOUDY    68  63  84 CALM      30.05F
BURLINGTON CO  CLOUDY    73  56  54 CALM      30.02R
LIMON CO       CLOUDY    70  52  52 SW6       30.11S
$$

...UNOFFICIAL OBSERVATIONS...

CITY           SKY/WX    TMP DP  RH WIND       PRES   REMARKS
COLBY KS       PTCLDY    72  66  83 E10       30.02F
LENORA KS        N/A     75  32  20 MISG        N/A
NORTON KS      CLEAR     73  61  64 N16G24    29.98R
TRIBUNE KS     CLOUDY    79  57  47 S9        29.99F
$$




USA.gov is the U.S. government's official web portal to all federal, state and local government web resources and services.